Regional Weather Roundup
Issued by NWS

Home | Current Version | Previous Version | Text Only | Print | Product List | Glossary On
Versions: 1 2 3 4 5 6 7 8 9 10 11 12 13 14 15 16 17 18 19 20 21 22 23 24 25 26 27 28
000
ASUS45 KREV 051710
RWRNV
NEVADA REGIONAL WEATHER ROUNDUP
NATIONAL WEATHER SERVICE RENO NV
1000 AM PDT THU MAY 05 2016

NOTE: "FAIR" INDICATES FEW OR NO CLOUDS BELOW 12,000 FEET WITH NO
SIGNIFICANT WEATHER AND/OR OBSTRUCTIONS TO VISIBILITY.

NVZ001-003-004-051800-
WESTERN NEVADA

CITY           SKY/WX    TMP DP  RH WIND       PRES   REMARKS
RENO           CLOUDY    53  40  61 NW10      29.89S THUNDER
CARSON CITY    FAIR      48  41  76 NW14      29.88F
MINDEN         FAIR      54  46  76 N14       29.88F
SLIDE MTN        N/A     32  32 100 S13         N/A
PYRAMID LAKE     N/A     52 N/A N/A NE1         N/A
FALLON         CLOUDY    66  37  34 N10       29.81F
LOVELOCK       PTSUNNY   64  39  39 NE17      29.81F
$$

NVZ002-CAZ072-073-051800-
NORTHERN AND CENTRAL SIERRA

CITY           SKY/WX    TMP DP  RH WIND       PRES   REMARKS
S. LAKE TAHOE  MOSUNNY   52  38  58 NE7       29.89F
TRUCKEE        LGT RAIN  43  43 100 CALM      29.92F
SQUAW VLY 8000   N/A     39  34  81 N1          N/A
BLUE CANYON    MOSUNNY   53  46  77 VRB5      29.88F
MAMMOTH LAKES  FAIR      56  23  28 E21       29.89F
BRIDGEPORT     PTSUNNY   53  32  44 NE8       29.85F
$$

NVZ030-031-036-051800-
NORTHERN NEVADA

CITY           SKY/WX    TMP DP  RH WIND       PRES   REMARKS
ELKO           MOSUNNY   68  34  28 VRB3      29.87F
WINNEMUCCA     PTSUNNY   62  41  46 NE20G26   29.83F
WENDOVER       PTSUNNY   68  39  34 E13       29.90F
$$

NVZ035-037-051800-
CENTRAL NEVADA

CITY           SKY/WX    TMP DP  RH WIND       PRES   REMARKS
ELY            SUNNY     65  26  23 S26G36    29.96F
EUREKA           N/A     66  27  23 S25G33    29.89F
$$

NVZ013-014-051800-
SOUTH CENTRAL NEVADA

CITY           SKY/WX    TMP DP  RH WIND       PRES   REMARKS
TONOPAH        CLOUDY    63  32  31 SW14      29.87S
$$

NVZ017-020-022-051800-
SOUTHERN NEVADA

CITY           SKY/WX    TMP DP  RH WIND       PRES   REMARKS
LAS VEGAS      CLOUDY    76  34  21 E7        29.78F
N. LAS VEGAS   CLOUDY    76  34  21 SE12      29.82R
NELLIS AFB     PTSUNNY   78  34  20 SE14G23   29.80F
HENDERSON      CLOUDY    76  37  24 S14       29.84F
MERCURY        PTSUNNY   74  34  23 W9        29.81S
$$




USA.gov is the U.S. government's official web portal to all federal, state and local government web resources and services.